Volver al catálogo

UFO 4

USA 108

ActivoMilitarGEO
NORAD 23467·PAYLOAD·🇺🇸 United States

Lanzado Jan 29, 1995 desde Cape Canaveral Space Force Station

Loading…

TLE

ActualizadoSource: Space-Track

Época: Sep 14, 2026, 14:44 UTC

1 23467U 95003A   26257.61453414 -.00000028  00000-0  00000-0 0  9990
2 23467   9.6986  12.7813 0003092 158.3465 216.0911  1.00269109115858

Sigue UFO 4 en tiempo real con AllMySat

Download on the App Store